Tracking 30070 objects as of 16-Jan-2025
HD Live streaming from Space Station
objects crossing your sky now

STARLINK-2188

Track STARLINK-2188 now!
10-day predictions
STARLINK-2188 is classified as:


NORAD ID: 48563
Int'l Code: 2021-041L
Perigee: 553.5 km
Apogee: 555.4 km
Inclination: 53.1 °
Period: 95.6 minutes
Semi major axis: 6925 km
RCS: Unknown
Launch date: May 15, 2021
Source: United States (US)
Launch site: AIR FORCE EASTERN TEST RANGE (AFETR)
Your satellite tracking list
Your tracking list is empty




NASA's NSSDC Master Catalog

Two Line Element Set (TLE):
1 48563U 21041L   25015.84799940  .00010353  00000-0  71370-3 0  9990
2 48563  53.0554 207.3772 0001395  96.5970 263.5178 15.06357324202228
Source of the keplerian elements: AFSPC